Skip Page Navigation
NASA JPL Caltech
NASA Logo - Jet Propulsion Laboratory + View the NASA Portal
+ Center for Near-Earth Object Studies
JPL Home Earth Solar System Stars & Galaxies Technology
JPL Solar System Dynamics
BODIES ORBITS EPHEMERIDES TOOLS PHYSICAL DATA DISCOVERY FAQ SITE MAP
IMPORTANT: The SSD Announcement email list is now available. Major changes are coming in the near future, including possible hostname and/or URL changes. To be notified of such changes, subscribe to this email list.

Please visit this page for more details.


JPL Small-Body Database Browser
Search: [ help ]  
376625 (2013 PE50)
Classification: Main-belt Asteroid          SPK-ID: 2376625
Ephemeris | Orbit Diagram | Orbital Elements | Mission Design | Physical Parameters | Discovery Circumstances | Close-Approach Data ]

[ show orbit diagram ]
Orbital Elements at Epoch 2459000.5 (2020-May-31.0) TDB
Reference: JPL 15 (heliocentric ecliptic J2000)
 Element Value Uncertainty (1-sigma)   Units 
e .06948973060622329 1.6347e-07  
a 2.793752599411442 4.3482e-08 au
q 2.599615483897904 4.6147e-07 au
i 3.586411078707358 1.7036e-05 deg
node 318.7046514163661 0.00014249 deg
peri 5.146936936741609 0.00015447 deg
M 168.1467746593788 5.9637e-05 deg
tp 2458203.852157761452
(2018-Mar-26.35215776)
0.00028018 TDB
period 1705.612395996564
4.67
3.9819e-05
1.09e-07
d
yr
n .211067884382757 4.9276e-09 deg/d
Q 2.987889714924979 4.6503e-08 au
  Orbit Determination Parameters
   # obs. used (total)      112  
   data-arc span      6989 days (19.13 yr)  
   first obs. used      1999-08-17  
   last obs. used      2018-10-05  
   planetary ephem.      DE431  
   SB-pert. ephem.      SB431-N16  
   condition code      0  
   norm. resid. RMS      .64988  
   source      ORB  
   producer      Otto Matic  
   solution date      2019-Jul-14 15:35:50  

Additional Information
 Earth MOID = 1.58724 au 
 Jupiter MOID = 2.2401 au 
 T_jup = 3.322 
[ show covariance matrix ]

Ephemeris | Orbit Diagram | Orbital Elements | Mission Design | Physical Parameters | Discovery Circumstances | Close-Approach Data ]

Physical Parameter Table
Parameter Symbol Value Units Sigma Reference Notes
absolute magnitude H 17.0   n/a MPO460476  

376625 (2013 PE50)          Discovered 2005-Dec-28 by Spacewatch at Kitt Peak
Reference: Last Updated: 2013-10-21

[ show close-approach data ]
Alternate Designations
 2013 PE50 = 2002 EU35 = 2005 YM234 
Ephemeris | Orbit Diagram | Orbital Elements | Mission Design | Physical Parameters | Discovery Circumstances | Close-Approach Data ]
ABOUT SSD CREDITS/AWARDS PRIVACY/COPYRIGHT GLOSSARY LINKS
FirstGov 2020-Feb-20 14:10 UT
(server date/time)  
NASA Home Page
Site Manager:   Ryan S. Park
Webmaster  Alan B. Chamberlin